| time (UTC) | temp F | wind direction | speed knots | gust knots | rain 1hr in | rain 24hr in | rain mn in | humidity % | barometer mb |
| 20260503181551 | 73 | 348 | 0.9 | 5.2 | 0.00 | 0.00 | 0.00 | 55 | 1011.3 |
| 20260503180042 | 72 | 19 | 1.7 | 5.2 | 0.00 | 0.00 | 0.00 | 56 | 1011.4 |
| 20260503174538 | 71 | 37 | 0.9 | 5.2 | 0.00 | 0.00 | 0.00 | 57 | 1011.7 |
| 20260503173036 | 70 | 96 | 2.6 | 7.0 | 0.00 | 0.00 | 0.00 | 59 | 1011.8 |
| 20260503171537 | 69 | 36 | 2.6 | 7.0 | 0.00 | 0.00 | 0.00 | 63 | 1012.0 |
| 20260503081521 | 52 | 225 | 0.0 | 0.0 | 0.00 | 0.01 | 0.00 | 90 | 1012.0 |
| 20260503071514 | 54 | 225 | 0.0 | 0.0 | 0.00 | 0.01 | 0.00 | 88 | 1012.0 |
| 20260503054516 | 57 | 225 | 0.9 | 2.6 | 0.00 | 0.01 | 0.01 | 84 | 1011.3 |
| 20260503053005 | 57 | 225 | 1.7 | 2.6 | 0.00 | 0.01 | 0.01 | 84 | 1011.4 |
| 20260503051504 | 58 | 225 | 2.6 | 3.5 | 0.00 | 0.01 | 0.01 | 82 | 1011.4 |
| 20260503050003 | 59 | 225 | 0.9 | 1.7 | 0.00 | 0.01 | 0.01 | 82 | 1011.4 |
| 20260503044508 | 59 | 225 | 0.0 | 1.7 | 0.00 | 0.01 | 0.01 | 81 | 1011.4 |
| 20260503043002 | 60 | 225 | 0.0 | 0.0 | 0.00 | 0.01 | 0.01 | 79 | 1011.5 |
| 20260503041502 | 61 | 225 | 0.0 | 3.5 | 0.00 | 0.01 | 0.01 | 78 | 1011.3 |
| 20260503040001 | 62 | 171 | 0.9 | 3.5 | 0.00 | 0.01 | 0.01 | 77 | 1011.1 |
| 20260503034502 | 63 | 229 | 2.6 | 5.2 | 0.00 | 0.01 | 0.01 | 76 | 1010.9 |
| 20260503033100 | 64 | 213 | 0.9 | 2.6 | 0.00 | 0.01 | 0.01 | 74 | 1010.8 |
| 20260503031600 | 65 | 221 | 0.9 | 3.5 | 0.00 | 0.01 | 0.01 | 72 | 1010.6 |
| 20260503030103 | 67 | 221 | 0.9 | 1.7 | 0.00 | 0.01 | 0.01 | 69 | 1010.7 |
| 20260503024559 | 69 | 222 | 1.7 | 4.3 | 0.00 | 0.01 | 0.01 | 67 | 1010.5 |
| 20260503023106 | 70 | 218 | 2.6 | 5.2 | 0.00 | 0.01 | 0.01 | 64 | 1010.7 |
| 20260503021601 | 71 | 219 | 1.7 | 4.3 | 0.00 | 0.01 | 0.01 | 63 | 1010.7 |
| 20260503020058 | 73 | 188 | 1.7 | 4.3 | 0.00 | 0.01 | 0.01 | 61 | 1010.8 |
| 20260503014554 | 75 | 225 | 0.9 | 6.1 | 0.00 | 0.01 | 0.01 | 54 | 1010.8 |
| 20260503013056 | 76 | 254 | 0.9 | 4.3 | 0.00 | 0.01 | 0.01 | 51 | 1010.9 |
| 20260503011612 | 76 | 234 | 0.9 | 4.3 | 0.00 | 0.01 | 0.01 | 53 | 1011.1 |
| 20260503010056 | 76 | 213 | 3.5 | 6.1 | 0.00 | 0.01 | 0.01 | 51 | 1011.2 |
| 20260503004551 | 76 | 222 | 3.5 | 6.1 | 0.00 | 0.01 | 0.01 | 54 | 1011.2 |
| 20260503003048 | 76 | 211 | 4.3 | 8.7 | 0.00 | 0.01 | 0.01 | 53 | 1011.2 |
| 20260503001548 | 77 | 213 | 3.5 | 6.1 | 0.00 | 0.01 | 0.01 | 53 | 1011.3 |
| 20260502234558 | 76 | 221 | 5.2 | 7.8 | 0.00 | 0.01 | 0.01 | 52 | 1011.4 |
| 20260502233043 | 76 | 221 | 0.9 | 7.8 | 0.00 | 0.01 | 0.01 | 54 | 1011.6 |
| 20260502231541 | 75 | 210 | 5.2 | 9.6 | 0.00 | 0.01 | 0.01 | 53 | 1011.9 |
| 20260502230038 | 75 | 203 | 0.9 | 8.7 | 0.00 | 0.01 | 0.01 | 55 | 1012.0 |
| 20260502224536 | 75 | 220 | 1.7 | 7.0 | 0.00 | 0.01 | 0.01 | 57 | 1012.2 |
| 20260502223033 | 74 | 239 | 1.7 | 7.0 | 0.00 | 0.01 | 0.01 | 57 | 1012.4 |
| 20260502221532 | 74 | 225 | 1.7 | 10.4 | 0.00 | 0.01 | 0.01 | 57 | 1012.6 |
| 20260502220028 | 74 | 248 | 5.2 | 9.6 | 0.00 | 0.01 | 0.01 | 60 | 1012.6 |
| 20260502214525 | 74 | 335 | 5.2 | 11.3 | 0.00 | 0.01 | 0.01 | 60 | 1012.8 |
| 20260502213023 | 73 | 236 | 4.3 | 9.6 | 0.00 | 0.01 | 0.01 | 60 | 1012.9 |
| 20260502211531 | 73 | 248 | 6.1 | 9.6 | 0.00 | 0.01 | 0.01 | 62 | 1013.3 |
| 20260502210021 | 72 | 210 | 5.2 | 12.2 | 0.00 | 0.01 | 0.01 | 64 | 1013.3 |
| 20260502204522 | 72 | 283 | 4.3 | 9.6 | 0.00 | 0.01 | 0.01 | 63 | 1013.5 |
| 20260502203019 | 72 | 19 | 5.2 | 10.4 | 0.00 | 0.01 | 0.01 | 64 | 1013.6 |
| 20260502201519 | 73 | 345 | 5.2 | 7.8 | 0.00 | 0.01 | 0.01 | 64 | 1013.6 |
| 20260502200018 | 74 | 250 | 2.6 | 7.8 | 0.00 | 0.01 | 0.01 | 65 | 1013.7 |
| 20260502194515 | 73 | 173 | 0.9 | 6.1 | 0.00 | 0.01 | 0.01 | 59 | 1013.7 |
| 20260502193012 | 72 | 269 | 2.6 | 6.1 | 0.00 | 0.01 | 0.01 | 59 | 1014.0 |
| 20260502191509 | 72 | 11 | 3.5 | 6.1 | 0.00 | 0.01 | 0.01 | 64 | 1013.9 |
| 20260502190005 | 71 | 326 | 0.9 | 9.6 | 0.00 | 0.01 | 0.01 | 66 | 1013.9 |
| 20260502184502 | 70 | 340 | 3.5 | 9.6 | 0.00 | 0.01 | 0.01 | 65 | 1013.9 |
| 20260502183001 | 69 | 27 | 2.6 | 7.8 | 0.00 | 0.01 | 0.01 | 68 | 1014.1 |